GW5190 Weather Reports


Display with metric or nautical units.
time (UTC)temp
F
wind
direction
speed
MPH
gust
MPH
rain 1hr
in
rain 24hr
in
rain mn
in
humidity
%
barometer
mb
20260509023954 52 241 2.0 6.0 0.00 0.17 0.17 90 1009.0
20260509023452 52 290 5.0 7.0 0.00 0.17 0.17 91 1008.8
20260509022948 52 173 5.0 6.0 0.00 0.17 0.17 91 1008.7
20260509022445 52 220 4.0 6.0 0.00 0.17 0.17 91 1008.8
20260509021943 51 163 1.0 5.0 0.00 0.17 0.17 91 1008.8
20260509021439 51 266 1.0 6.0 0.00 0.17 0.17 92 1009.1
20260509020937 51 273 3.0 6.0 0.00 0.17 0.17 92 1008.8
20260509020435 51 215 2.0 6.0 0.00 0.17 0.17 92 1008.8
20260509015932 51 261 2.0 5.0 0.00 0.17 0.17 92 1008.8
20260509015431 51 147 2.0 5.0 0.00 0.17 0.17 92 1008.9
20260509014927 51 152 1.0 4.0 0.00 0.17 0.17 92 1008.5
20260509014424 51 220 3.0 6.0 0.00 0.17 0.17 92 1008.8
20260509013920 51 265 3.0 7.0 0.00 0.17 0.17 92 1008.7
20260509013417 51 254 1.0 4.0 0.00 0.17 0.17 92 1008.7
20260509012913 51 103 0.0 5.0 0.00 0.17 0.17 92 1008.7
20260509012410 51 166 2.0 6.0 0.02 0.17 0.17 92 1008.8
20260509011907 51 144 3.0 7.0 0.02 0.17 0.17 92 1008.7
20260509011404 51 201 2.0 7.0 0.00 0.17 0.17 92 1008.6
20260509010902 51 175 5.0 11.0 0.00 0.17 0.17 93 1008.7
20260509010359 51 281 3.0 4.0 0.02 0.17 0.17 93 1008.7
20260509005856 51 170 2.0 7.0 0.02 0.17 0.17 93 1008.9
20260509005355 51 138 1.0 5.0 0.00 0.17 0.17 93 1008.8
20260509004854 51 227 4.0 7.0 0.02 0.17 0.17 93 1008.7
20260509004351 51 184 2.0 7.0 0.05 0.17 0.17 93 1008.8
20260509003849 51 267 4.0 6.0 0.05 0.16 0.16 93 1008.6
20260509003346 51 152 5.0 8.0 0.05 0.16 0.16 93 1008.7
20260509002843 51 168 3.0 7.0 0.05 0.15 0.15 93 1008.6
20260509002341 51 267 3.0 7.0 0.05 0.15 0.15 93 1008.5
20260509001838 51 278 0.0 6.0 0.02 0.14 0.14 93 1008.5
20260509001334 51 194 3.0 7.0 0.05 0.14 0.14 93 1008.4
20260509000832 51 190 2.0 6.0 0.05 0.14 0.14 93 1008.8
20260509000329 51 154 1.0 4.0 0.05 0.13 0.13 93 1008.8
20260508235825 51 343 0.0 9.0 0.02 0.13 0.13 93 1008.8
20260508235322 51 172 0.0 6.0 0.02 0.13 0.13 93 1008.6
20260508234820 51 259 2.0 8.0 0.05 0.13 0.13 93 1008.6
20260508234316 51 193 3.0 6.0 0.05 0.12 0.12 93 1008.6
20260508233815 51 158 2.0 4.0 0.05 0.12 0.12 92 1008.6
20260508233313 51 118 0.0 5.0 0.05 0.11 0.11 92 1008.7
20260508232810 51 156 1.0 6.0 0.05 0.11 0.11 92 1008.8
20260508232307 51 113 0.0 4.0 0.07 0.11 0.11 92 1008.7
20260508231805 51 157 1.0 6.0 0.07 0.10 0.10 92 1008.7
20260508231300 51 53 0.0 3.0 0.07 0.09 0.09 92 1009.0
20260508230758 51 261 2.0 4.0 0.05 0.09 0.09 92 1008.7
20260508230254 51 210 0.0 2.0 0.02 0.08 0.08 91 1008.7
20260508225752 51 254 1.0 2.0 0.02 0.08 0.08 91 1008.8
20260508225248 51 202 0.0 1.0 0.00 0.07 0.07 91 1008.7
20260508224746 51 284 1.0 8.0 0.02 0.07 0.07 91 1008.6
20260508224243 51 312 2.0 6.0 0.02 0.07 0.07 91 1008.7
20260508223741 51 271 3.0 5.0 0.05 0.07 0.07 91 1008.6
20260508223238 51 222 2.0 3.0 0.07 0.07 0.07 91 1008.6
20260508222735 51 168 0.0 5.0 0.09 0.06 0.06 90 1008.7
20260508222233 51 238 0.0 3.0 0.05 0.05 0.05 90 1008.8
20260508221729 51 215 0.0 3.0 0.05 0.05 0.05 90 1008.7
20260508221225 51 253 1.0 7.0 0.07 0.04 0.04 89 1008.7
20260508220721 51 250 3.0 4.0 0.07 0.04 0.04 89 1008.9
20260508220218 51 235 1.0 4.0 0.09 0.03 0.03 88 1008.7
20260508215714 52 183 1.0 5.0 0.14 0.03 0.03 87 1009.0
20260508215211 52 235 0.0 8.0 0.07 0.02 0.02 86 1008.6
20260508214708 52 231 3.0 6.0 0.00 0.00 0.00 85 1008.5
20260508214205 52 267 2.0 3.0 0.00 0.00 0.00 85 1008.3
20260508213701 52 124 1.0 4.0 0.02 0.00 0.00 86 1008.3
20260508213158 52 162 2.0 5.0 0.02 0.00 0.00 86 1008.5
20260508212655 52 283 1.0 6.0 0.00 0.00 0.00 85 1008.8
20260508212151 52 168 3.0 7.0 0.00 0.00 0.00 84 1008.8
20260508211651 52 243 3.0 6.0 0.00 0.00 0.00 84 1008.6
20260508211148 53 278 4.0 8.0 0.00 0.00 0.00 83 1008.9
20260508210645 53 235 5.0 7.0 0.00 0.00 0.00 83 1008.9
20260508210142 53 198 2.0 6.0 0.00 0.00 0.00 82 1009.1
20260508205639 53 266 6.0 13.0 0.00 0.00 0.00 81 1008.8
20260508205136 53 244 6.0 10.0 0.00 0.00 0.00 83 1009.1
20260508204632 53 196 1.0 9.0 0.00 0.00 0.00 82 1009.1
20260508204128 53 262 4.0 9.0 0.00 0.00 0.00 80 1009.1
20260508203624 53 233 5.0 9.0 0.00 0.00 0.00 80 1009.3
20260508203121 53 255 3.0 11.0 0.00 0.00 0.00 80 1009.1
20260508202617 53 262 8.0 13.0 0.00 0.00 0.00 79 1009.5
20260508202114 54 256 5.0 19.0 0.00 0.00 0.00 78 1009.6
20260508201611 55 261 5.0 13.0 0.00 0.00 0.00 76 1009.9
20260508201107 55 245 3.0 11.0 0.00 0.00 0.00 74 1010.0
20260508200605 56 245 6.0 11.0 0.00 0.00 0.00 73 1009.7
20260508200100 56 250 4.0 17.0 0.00 0.00 0.00 71 1009.5
20260508195557 56 217 5.0 15.0 0.00 0.00 0.00 70 1009.7
20260508195053 57 193 2.0 12.0 0.00 0.00 0.00 70 1009.7
20260508194550 57 117 9.0 12.0 0.00 0.00 0.00 70 1009.8
20260508194048 57 256 8.0 14.0 0.00 0.00 0.00 69 1009.7
20260508193544 57 263 3.0 15.0 0.00 0.00 0.00 69 1009.8
20260508193041 58 241 5.0 13.0 0.00 0.00 0.00 68 1009.6
20260508192537 57 222 9.0 12.0 0.00 0.00 0.00 68 1009.6
20260508192035 58 303 8.0 16.0 0.00 0.00 0.00 67 1009.8
20260508191531 58 214 4.0 11.0 0.00 0.00 0.00 67 1009.7
20260508191028 59 244 6.0 11.0 0.00 0.00 0.00 66 1009.8
20260508190525 58 252 7.0 13.0 0.00 0.00 0.00 66 1009.7
20260508190021 58 52 4.0 16.0 0.00 0.00 0.00 67 1009.9
20260508185519 59 249 12.0 14.0 0.00 0.00 0.00 65 1009.7
20260508185016 59 236 2.0 13.0 0.00 0.00 0.00 64 1010.0
20260508184514 58 254 13.0 18.0 0.00 0.00 0.00 65 1009.9
20260508184010 58 257 9.0 17.0 0.00 0.00 0.00 64 1010.0
20260508183507 58 241 18.0 20.0 0.00 0.00 0.00 63 1010.0
20260508183002 57 276 15.0 17.0 0.00 0.00 0.00 68 1010.3
20260508182459 57 247 11.0 15.0 0.00 0.00 0.00 68 1010.3
20260508181955 59 228 4.0 15.0 0.00 0.00 0.00 66 1010.2
20260508181451 58 253 2.0 10.0 0.00 0.00 0.00 66 1010.3
20260508180949 58 246 2.0 11.0 0.00 0.00 0.00 67 1010.4
20260508180446 58 242 6.0 18.0 0.00 0.00 0.00 67 1010.3
20260508175942 58 265 11.0 11.0 0.00 0.00 0.00 67 1010.4
20260508175438 58 207 3.0 9.0 0.00 0.00 0.00 67 1010.3
20260508174936 57 266 5.0 13.0 0.00 0.00 0.00 69 1010.7
20260508174434 56 272 10.0 15.0 0.00 0.00 0.00 68 1010.5
20260508173930 57 243 8.0 11.0 0.00 0.00 0.00 68 1010.9
20260508173428 56 259 5.0 13.0 0.00 0.00 0.00 69 1010.9
20260508172923 57 233 4.0 15.0 0.00 0.00 0.00 68 1010.9
20260508172421 57 317 2.0 15.0 0.00 0.00 0.00 67 1010.9
20260508171917 58 246 8.0 12.0 0.00 0.00 0.00 64 1011.0
20260508171413 58 259 3.0 8.0 0.00 0.00 0.00 65 1010.7
20260508170910 57 252 3.0 12.0 0.00 0.00 0.00 63 1010.9
20260508170408 58 238 5.0 14.0 0.00 0.00 0.00 61 1011.1
20260508165904 59 248 5.0 12.0 0.00 0.00 0.00 60 1011.1
20260508165402 58 252 6.0 15.0 0.00 0.00 0.00 61 1011.1
20260508164857 58 257 11.0 17.0 0.00 0.00 0.00 62 1010.9
20260508164355 59 202 2.0 13.0 0.00 0.00 0.00 63 1011.0
20260508163852 59 252 6.0 10.0 0.00 0.00 0.00 63 1010.8
20260508163350 59 232 2.0 7.0 0.00 0.00 0.00 61 1010.9
20260508162851 59 292 4.0 14.0 0.00 0.00 0.00 62 1010.5
20260508162349 58 250 8.0 13.0 0.00 0.00 0.00 62 1011.1
20260508161846 59 262 4.0 9.0 0.00 0.00 0.00 64 1011.1
20260508161343 58 259 4.0 15.0 0.00 0.00 0.00 63 1011.2
20260508160840 58 359 3.0 10.0 0.00 0.00 0.00 62 1011.1
20260508160338 57 16 3.0 9.0 0.00 0.00 0.00 62 1011.0
20260508155834 58 240 4.0 13.0 0.00 0.00 0.00 61 1011.1
20260508155332 59 248 6.0 10.0 0.00 0.00 0.00 63 1011.2
20260508154828 58 268 3.0 9.0 0.00 0.00 0.00 63 1011.4
20260508154326 57 247 3.0 12.0 0.00 0.00 0.00 63 1011.1
20260508153822 57 247 5.0 11.0 0.00 0.00 0.00 62 1011.0
20260508153320 60 206 2.0 11.0 0.00 0.00 0.00 60 1011.0
20260508152815 59 291 4.0 5.0 0.00 0.00 0.00 61 1011.2
20260508152312 59 149 2.0 9.0 0.00 0.00 0.00 61 1011.2
20260508151808 58 269 9.0 10.0 0.00 0.00 0.00 62 1011.2
20260508151305 58 222 5.0 18.0 0.00 0.00 0.00 61 1011.1
20260508150802 59 225 8.0 11.0 0.00 0.00 0.00 60 1011.2
20260508150259 59 23 1.0 11.0 0.00 0.00 0.00 61 1011.3
20260508145755 59 159 0.0 6.0 0.00 0.00 0.00 61 1011.3
20260508145251 57 271 8.0 12.0 0.00 0.00 0.00 62 1011.2
20260508144748 59 238 4.0 7.0 0.00 0.00 0.00 60 1011.3
20260508144246 58 182 2.0 5.0 0.00 0.00 0.00 61 1011.2
20260508143743 57 50 0.0 7.0 0.00 0.00 0.00 63 1011.1
20260508143240 56 281 3.0 12.0 0.00 0.00 0.00 63 1011.2
20260508142736 57 238 8.0 12.0 0.00 0.00 0.00 61 1011.3
20260508142233 58 238 5.0 9.0 0.00 0.00 0.00 59 1011.5
20260508141730 57 304 1.0 5.0 0.00 0.00 0.00 64 1011.1
20260508141227 56 244 5.0 10.0 0.00 0.00 0.00 63 1011.2
20260508140725 55 231 3.0 10.0 0.00 0.00 0.00 64 1011.3
20260508140221 55 241 4.0 14.0 0.00 0.00 0.00 63 1011.4
20260508135717 55 133 2.0 5.0 0.00 0.00 0.00 65 1011.5
20260508135213 54 243 2.0 7.0 0.00 0.00 0.00 65 1011.4
20260508134709 54 137 2.0 14.0 0.00 0.00 0.00 65 1011.3
20260508134207 55 246 3.0 13.0 0.00 0.00 0.00 64 1011.4
20260508133703 54 237 5.0 12.0 0.00 0.00 0.00 65 1011.5
20260508133201 54 233 2.0 7.0 0.00 0.00 0.00 66 1011.5
20260508132658 53 257 2.0 6.0 0.00 0.00 0.00 65 1011.4
20260508132155 53 230 7.0 12.0 0.00 0.00 0.00 65 1011.6
20260508131651 53 228 5.0 9.0 0.00 0.00 0.00 65 1011.6
20260508131147 52 196 2.0 12.0 0.00 0.00 0.00 66 1011.7
20260508130644 52 147 0.0 6.0 0.00 0.00 0.00 67 1011.6
20260508130141 51 164 1.0 6.0 0.00 0.00 0.00 68 1011.3
20260508125636 51 249 4.0 10.0 0.00 0.00 0.00 68 1011.6
20260508125134 51 54 0.0 12.0 0.00 0.00 0.00 70 1011.8
20260508124632 50 251 3.0 8.0 0.00 0.00 0.00 70 1011.8
20260508124129 50 48 1.0 9.0 0.00 0.00 0.00 71 1011.6
20260508123627 50 240 5.0 5.0 0.00 0.00 0.00 72 1011.6
20260508123124 50 352 0.0 5.0 0.00 0.00 0.00 73 1011.5
20260508122620 50 253 3.0 5.0 0.00 0.00 0.00 73 1011.6
20260508122118 50 267 5.0 7.0 0.00 0.00 0.00 74 1011.3
20260508121616 49 207 0.0 4.0 0.00 0.00 0.00 75 1011.4
20260508121114 49 290 0.0 7.0 0.00 0.00 0.00 75 1011.3
20260508120611 49 245 3.0 5.0 0.00 0.00 0.00 75 1011.3
20260508120109 49 253 1.0 4.0 0.00 0.00 0.00 75 1011.4
20260508115606 49 258 2.0 8.0 0.00 0.00 0.00 75 1011.2
20260508115103 49 252 6.0 8.0 0.00 0.00 0.00 74 1011.1
20260508114600 49 219 0.0 5.0 0.00 0.00 0.00 75 1011.2
20260508114056 49 242 2.0 9.0 0.00 0.00 0.00 74 1011.0
20260508113553 49 291 2.0 5.0 0.00 0.00 0.00 75 1011.0
20260508113052 49 203 2.0 8.0 0.00 0.00 0.00 74 1010.8
20260508112547 49 190 4.0 7.0 0.00 0.00 0.00 72 1010.9
20260508112044 49 226 3.0 8.0 0.00 0.00 0.00 72 1011.0
20260508111541 49 246 8.0 9.0 0.00 0.00 0.00 72 1010.5
20260508111038 49 277 3.0 7.0 0.00 0.00 0.00 72 1010.8
20260508110536 49 252 7.0 11.0 0.00 0.00 0.00 72 1010.5
20260508110032 49 260 5.0 9.0 0.00 0.00 0.00 72 1010.8
20260508105527 49 262 1.0 7.0 0.00 0.00 0.00 73 1010.5
20260508105025 48 240 2.0 8.0 0.00 0.00 0.00 73 1010.7
20260508104523 48 253 2.0 4.0 0.00 0.00 0.00 73 1010.7
20260508104018 48 259 5.0 11.0 0.00 0.00 0.00 73 1010.8
20260508103515 48 276 2.0 10.0 0.00 0.00 0.00 73 1010.9
20260508103013 48 254 4.0 10.0 0.00 0.00 0.00 73 1011.1
20260508102511 48 266 2.0 11.0 0.00 0.00 0.00 73 1011.0
20260508102008 48 256 3.0 9.0 0.00 0.00 0.00 73 1010.7
20260508101505 48 249 10.0 11.0 0.00 0.00 0.00 74 1010.9
20260508101002 47 281 1.0 5.0 0.00 0.00 0.00 75 1010.5
20260508100501 47 240 1.0 3.0 0.00 0.00 0.00 76 1010.7
20260508095956 47 147 0.0 3.0 0.00 0.00 0.00 76 1010.5
20260508095454 47 265 0.0 4.0 0.00 0.00 0.00 76 1010.5
20260508094951 47 249 0.0 5.0 0.00 0.00 0.00 76 1010.7
20260508094448 46 241 1.0 4.0 0.00 0.00 0.00 77 1010.7
20260508093944 46 254 1.0 5.0 0.00 0.00 0.00 77 1010.9
20260508093442 46 76 0.0 4.0 0.00 0.00 0.00 77 1010.8
20260508092940 46 255 4.0 6.0 0.00 0.00 0.00 77 1010.8
20260508092437 46 230 2.0 6.0 0.00 0.00 0.00 77 1010.5
20260508091936 46 180 1.0 4.0 0.00 0.00 0.00 77 1010.8
20260508091432 46 222 0.0 7.0 0.00 0.00 0.00 77 1010.8
20260508090929 46 29 2.0 5.0 0.00 0.00 0.00 77 1011.1
20260508090428 46 226 3.0 8.0 0.00 0.00 0.00 76 1010.8
20260508085923 46 247 4.0 7.0 0.00 0.00 0.00 76 1011.0
20260508085420 47 279 4.0 8.0 0.00 0.00 0.00 76 1011.1
20260508084917 47 280 3.0 5.0 0.00 0.00 0.00 76 1010.9
20260508084413 46 249 5.0 10.0 0.00 0.00 0.00 76 1011.1
20260508083911 46 212 4.0 6.0 0.00 0.00 0.00 76 1011.0
20260508083409 46 281 1.0 4.0 0.00 0.00 0.00 77 1011.0
20260508082908 46 283 2.0 4.0 0.00 0.00 0.00 78 1011.2
20260508082406 46 288 0.0 3.0 0.00 0.00 0.00 77 1011.2
20260508081904 46 194 1.0 3.0 0.00 0.00 0.00 77 1011.1
20260508081400 46 235 2.0 6.0 0.00 0.00 0.00 77 1011.3
20260508080857 46 200 0.0 4.0 0.00 0.00 0.00 77 1011.2
20260508080355 46 193 3.0 6.0 0.00 0.00 0.00 76 1011.3
20260508075851 47 187 3.0 7.0 0.00 0.00 0.00 75 1010.9
20260508075348 47 197 3.0 7.0 0.00 0.00 0.00 75 1011.4
20260508074846 47 253 3.0 10.0 0.00 0.00 0.00 74 1011.1
20260508074343 47 223 2.0 5.0 0.00 0.00 0.00 74 1011.1
20260508073840 48 199 2.0 10.0 0.00 0.00 0.00 73 1011.3
20260508073338 48 220 2.0 10.0 0.00 0.00 0.00 72 1011.4
20260508072834 48 262 3.0 10.0 0.00 0.00 0.00 72 1011.4
20260508072331 48 244 3.0 10.0 0.00 0.00 0.00 71 1011.0
20260508071828 48 249 4.0 12.0 0.00 0.00 0.00 70 1011.2
20260508071326 49 249 8.0 13.0 0.00 0.00 0.00 69 1011.5
20260508070824 49 282 4.0 21.0 0.00 0.00 0.00 68 1011.4
20260508070322 49 164 1.0 7.0 0.00 0.00 0.00 67 1011.2
20260508065819 49 245 4.0 13.0 0.00 0.00 0.00 65 1011.3
20260508065317 49 256 5.0 15.0 0.00 0.00 0.00 65 1011.4
20260508064814 49 250 4.0 9.0 0.00 0.00 0.00 64 1011.3
20260508064312 49 265 4.0 10.0 0.00 0.00 0.00 64 1011.4
20260508063809 49 258 4.0 9.0 0.00 0.00 0.00 64 1011.2
20260508063307 49 223 2.0 7.0 0.00 0.00 0.00 63 1011.3
20260508062804 49 265 4.0 9.0 0.00 0.00 0.00 64 1011.3
20260508062305 49 254 4.0 5.0 0.00 0.00 0.00 64 1011.4
20260508061758 48 226 1.0 6.0 0.00 0.00 0.00 64 1011.5
20260508061255 48 256 2.0 4.0 0.00 0.00 0.00 65 1011.2
20260508060752 48 205 3.0 6.0 0.00 0.00 0.00 64 1011.1
20260508060250 48 294 2.0 11.0 0.00 0.00 0.00 64 1011.4
20260508055745 48 261 2.0 5.0 0.00 0.00 0.00 65 1011.5
20260508055242 48 213 2.0 4.0 0.00 0.00 0.00 65 1011.5
20260508054739 48 181 1.0 5.0 0.00 0.00 0.00 65 1011.5
20260508054237 48 308 0.0 5.0 0.00 0.00 0.00 65 1011.6
20260508053734 48 232 2.0 5.0 0.00 0.00 0.00 65 1011.5
20260508053231 48 232 0.0 4.0 0.00 0.00 0.00 64 1011.6
20260508052728 49 290 0.0 4.0 0.00 0.00 0.00 64 1011.7
20260508052225 49 273 5.0 6.0 0.00 0.00 0.00 64 1011.7
20260508051721 49 255 2.0 6.0 0.00 0.00 0.00 63 1011.8
20260508051217 49 211 0.0 5.0 0.00 0.00 0.00 63 1011.7
20260508050713 49 275 4.0 5.0 0.00 0.00 0.00 63 1011.9
20260508050211 49 265 2.0 3.0 0.00 0.00 0.00 63 1011.9
20260508045706 49 255 0.0 6.0 0.00 0.00 0.00 63 1011.7
20260508045204 49 174 2.0 5.0 0.00 0.00 0.00 62 1011.9
20260508044701 49 239 3.0 5.0 0.00 0.00 0.00 63 1011.8
20260508044157 49 11 0.0 6.0 0.00 0.00 0.00 63 1011.8
20260508043654 49 251 4.0 5.0 0.00 0.00 0.00 62 1011.8
20260508043152 49 263 4.0 6.0 0.00 0.00 0.00 62 1011.9
20260508042648 49 32 0.0 6.0 0.00 0.00 0.00 62 1011.9
20260508042145 49 191 0.0 4.0 0.00 0.00 0.00 62 1011.9
20260508041642 49 274 4.0 6.0 0.00 0.00 0.00 62 1012.0
20260508041139 49 252 4.0 9.0 0.00 0.00 0.00 62 1011.9
20260508040635 49 296 3.0 7.0 0.00 0.00 0.00 62 1012.0
20260508040133 49 209 1.0 6.0 0.00 0.00 0.00 62 1012.0
20260508035630 49 262 2.0 7.0 0.00 0.00 0.00 61 1012.0
20260508035127 49 232 3.0 8.0 0.00 0.00 0.00 61 1012.1
20260508034624 49 284 2.0 6.0 0.00 0.00 0.00 60 1011.9
20260508034121 49 219 3.0 6.0 0.00 0.00 0.00 60 1012.2
20260508033618 49 262 3.0 5.0 0.00 0.00 0.00 60 1012.1
20260508033116 49 239 2.0 9.0 0.00 0.00 0.00 59 1012.1
20260508032612 49 263 4.0 9.0 0.00 0.00 0.00 58 1012.1
20260508032110 49 207 3.0 12.0 0.00 0.00 0.00 57 1012.0
20260508031607 48 265 5.0 5.0 0.00 0.00 0.00 57 1012.1
20260508031103 48 227 0.0 4.0 0.00 0.00 0.00 57 1012.2
20260508030559 48 246 3.0 6.0 0.00 0.00 0.00 57 1012.1
20260508030058 47 276 3.0 6.0 0.00 0.00 0.00 59 1011.9
20260508025553 46 265 1.0 2.0 0.00 0.00 0.00 62 1012.2
20260508025051 46 265 2.0 3.0 0.00 0.00 0.00 62 1012.1
20260508024546 45 253 1.0 3.0 0.00 0.00 0.00 64 1012.1